OE7DRT-13 Weather Reports


Display with metric or nautical units.
time (UTC)temp
F
wind
direction
speed
MPH
gust
MPH
rain 1hr
in
rain 24hr
in
rain mn
in
humidity
%
barometer
mb
20260506082527 55 56 2.0 10.0 0.00 0.00 0.00 53 1007.6
20260506082105 55 355 3.0 11.0 0.00 0.00 0.00 52 1007.4
20260506081523 55 291 1.0 6.0 0.00 0.00 0.00 51 1007.5
20260506081021 55 12 2.0 7.0 0.00 0.00 0.00 51 1007.0
20260506080519 55 39 1.0 6.0 0.00 0.00 0.00 52 1006.8
20260506073028 51 0.0 0.0 0.00 0.00 0.00 69 1007.2
20260506072526 50 181 1.0 3.0 0.00 0.00 0.00 70 1007.4
20260506072044 50 318 1.0 2.0 0.00 0.00 0.00 68 1007.4
20260506071523 49 176 0.0 2.0 0.00 0.00 0.00 68 1007.3
20260506071021 49 34 0.0 1.0 0.00 0.00 0.00 69 1007.5
20260506070539 49 0.0 0.0 0.00 0.00 0.00 68 1007.5
20260506062044 47 338 0.0 1.0 0.00 0.00 0.00 74 1008.0
20260506061521 47 6 0.0 1.0 0.00 0.00 0.00 74 1008.0
20260506061020 46 0.0 0.0 0.00 0.00 0.00 76 1008.0
20260506060518 45 0.0 0.0 0.00 0.00 0.00 76 1007.9
20260506051019 44 0.0 0.0 0.00 0.00 0.00 79 1008.1
20260506050518 43 0.0 0.0 0.00 0.00 0.00 80 1008.1
20260506045032 43 0.0 0.0 0.00 0.00 0.00 80 1008.3
20260506044531 43 0.0 0.0 0.00 0.00 0.00 80 1008.3
20260506044029 42 232 0.0 1.0 0.00 0.00 0.00 81 1008.5
20260506043527 42 17 0.0 1.0 0.00 0.00 0.00 81 1008.5
20260506043046 42 352 0.0 1.0 0.00 0.00 0.00 80 1008.4
20260506042524 43 0.0 0.0 0.00 0.00 0.00 81 1008.5
20260506042022 43 352 0.0 2.0 0.00 0.00 0.00 80 1008.7
20260506041521 43 0.0 0.0 0.00 0.00 0.00 81 1008.7
20260506041019 43 0.0 0.0 0.00 0.00 0.00 81 1008.8
20260506040518 42 0.0 0.0 0.00 0.00 0.00 81 1008.9
20260506040016 42 166 0.0 1.0 0.00 0.00 0.00 81 1009.0
20260506035555 42 344 0.0 2.0 0.00 0.00 0.00 80 1008.8
20260506035032 42 322 0.0 3.0 0.00 0.00 0.00 81 1008.9
20260506034531 43 0.0 0.0 0.00 0.00 0.00 80 1008.8
20260506034029 42 0.0 0.0 0.00 0.00 0.00 81 1009.0
20260506033527 42 0.0 0.0 0.00 0.00 0.00 81 1009.0
20260506033026 43 0.0 0.0 0.00 0.00 0.00 81 1008.9
20260506032544 43 0.0 0.0 0.00 0.00 0.00 81 1009.0
20260506032023 43 0.0 0.0 0.00 0.00 0.00 81 1009.0
20260506031521 43 0.0 0.0 0.00 0.00 0.00 80 1009.0
20260506031019 43 0.0 0.0 0.00 0.00 0.00 80 1009.1
20260506030518 43 0.0 0.0 0.00 0.00 0.00 80 1009.1
20260506030016 43 0.0 0.0 0.00 0.00 0.00 79 1009.1
20260506025534 43 0.0 0.0 0.00 0.00 0.00 79 1009.1
20260506025033 43 0.0 0.0 0.00 0.00 0.00 80 1009.3
20260506024531 43 0.0 0.0 0.00 0.00 0.00 79 1009.2
20260506024029 43 0.0 0.0 0.00 0.00 0.00 79 1009.4
20260506023527 43 0.0 0.0 0.00 0.00 0.00 80 1009.6
20260506023026 43 0.0 0.0 0.00 0.00 0.00 79 1009.7
20260506022544 43 0.0 0.0 0.00 0.00 0.00 79 1009.7
20260506022023 43 0.0 0.0 0.00 0.00 0.00 78 1009.7
20260506021521 43 0.0 0.0 0.00 0.00 0.00 79 1009.9
20260506021019 43 0.0 0.0 0.00 0.00 0.00 78 1009.9
20260506020517 44 0.0 0.0 0.00 0.00 0.00 77 1009.8
20260506020015 44 320 0.0 1.0 0.00 0.00 0.00 76 1010.0
20260506015534 44 0.0 0.0 0.00 0.00 0.00 75 1010.0
20260506015032 44 0.0 0.0 0.00 0.00 0.00 74 1010.0
20260506014530 44 191 0.0 1.0 0.00 0.00 0.00 74 1010.2
20260506014029 44 201 0.0 1.0 0.00 0.00 0.00 74 1010.2
20260506013547 45 0.0 0.0 0.00 0.00 0.00 74 1010.1
20260506013025 45 0.0 0.0 0.00 0.00 0.00 73 1010.1
20260506012523 46 0.0 0.0 0.00 0.00 0.00 71 1009.9
20260506012042 46 214 0.0 2.0 0.00 0.00 0.00 70 1010.0
20260506011522 45 216 1.0 2.0 0.00 0.00 0.00 71 1009.7
20260506011019 46 0.0 0.0 0.00 0.00 0.00 71 1009.8
20260506010517 46 330 0.0 1.0 0.00 0.00 0.00 69 1009.9
20260506010035 46 192 0.0 2.0 0.00 0.00 0.00 70 1010.0
20260506005554 46 135 0.0 2.0 0.00 0.00 0.00 69 1010.0
20260506005032 46 185 0.0 1.0 0.00 0.00 0.00 69 1010.0
20260506004530 46 292 0.0 1.0 0.00 0.00 0.00 68 1010.0
20260506004028 46 0.0 0.0 0.00 0.00 0.00 68 1010.0
20260506003527 46 0.0 0.0 0.00 0.00 0.00 69 1010.0
20260506003025 46 0.0 0.0 0.00 0.00 0.00 68 1010.1
20260506002525 47 0.0 0.0 0.00 0.00 0.00 68 1010.2
20260506002023 47 237 0.0 2.0 0.00 0.00 0.00 67 1010.1
20260506001520 47 218 0.0 2.0 0.00 0.00 0.00 68 1010.0
20260506001039 47 247 0.0 3.0 0.00 0.00 0.00 67 1010.0
20260506000517 47 251 1.0 4.0 0.00 0.00 0.00 67 1010.0
20260506000035 47 226 0.0 2.0 0.00 0.00 0.00 67 1009.9
20260505235533 47 243 1.0 2.0 0.00 0.00 0.00 67 1009.9
20260505235032 47 245 0.0 2.0 0.00 0.00 0.00 68 1010.0
20260505234550 47 261 0.0 1.0 0.00 0.00 0.00 67 1010.1
20260505234028 47 225 0.0 1.0 0.00 0.00 0.00 68 1010.1
20260505233527 48 296 0.0 1.0 0.00 0.00 0.00 67 1010.2
20260505233025 48 0.0 0.0 0.00 0.00 0.00 66 1010.1
20260505232524 48 265 0.0 1.0 0.00 0.00 0.00 64 1010.2
20260505232042 49 258 0.0 1.0 0.00 0.00 0.00 64 1010.1
20260505231519 49 269 1.0 2.0 0.00 0.00 0.00 64 1010.1
20260505231018 49 248 1.0 3.0 0.00 0.00 0.00 64 1010.1
20260505230516 49 289 1.0 3.0 0.00 0.00 0.00 65 1010.1
20260505230034 48 236 1.0 2.0 0.00 0.00 0.00 66 1010.2
20260505225533 49 218 0.0 2.0 0.00 0.00 0.00 65 1010.2
20260505225031 48 247 1.0 3.0 0.00 0.00 0.00 66 1010.1
20260505224529 48 247 0.0 2.0 0.00 0.00 0.00 67 1010.3
20260505224028 48 0.0 0.0 0.00 0.00 0.00 68 1010.3
20260505223526 48 0.0 0.0 0.00 0.00 0.00 68 1010.2
20260505223045 49 0.0 0.0 0.00 0.00 0.00 67 1010.2
20260505222524 49 246 0.0 1.0 0.00 0.00 0.00 67 1010.1
20260505222021 49 0.0 0.0 0.00 0.00 0.00 67 1010.1
20260505221519 48 0.0 0.0 0.00 0.00 0.00 67 1010.1
20260505221018 48 0.0 0.0 0.00 0.00 0.00 70 1010.3
20260505220516 49 0.0 0.0 0.00 0.00 0.00 68 1010.2
20260505220034 49 0.0 0.0 0.00 0.00 0.00 66 1010.2
20260505215532 49 231 0.0 1.0 0.00 0.00 0.00 67 1010.1
20260505215031 49 215 0.0 1.0 0.00 0.00 0.00 67 1010.1
20260505214529 49 232 0.0 1.0 0.00 0.00 0.00 67 1010.1
20260505214027 50 0.0 0.0 0.00 0.00 0.00 66 1010.0
20260505213526 50 220 0.0 1.0 0.00 0.00 0.00 64 1009.9
20260505213024 50 0.0 0.0 0.00 0.00 0.00 65 1010.0
20260505212522 50 202 0.0 1.0 0.00 0.00 0.00 65 1010.0
20260505212020 50 26 0.0 1.0 0.00 0.00 0.00 64 1009.9
20260505211519 51 252 0.0 2.0 0.00 0.00 0.00 63 1009.9
20260505211017 51 0.0 0.0 0.00 0.00 0.00 64 1009.9
20260505210535 51 0.0 0.0 0.00 0.00 0.00 63 1009.8
20260505210034 51 219 0.0 2.0 0.00 0.00 0.00 64 1009.8
20260505205552 50 252 0.0 1.0 0.00 0.00 0.00 64 1009.8
20260505205030 50 195 0.0 1.0 0.00 0.00 0.00 65 1009.9
20260505204548 50 220 0.0 1.0 0.00 0.00 0.00 65 1009.8
20260505204028 51 0.0 0.0 0.00 0.00 0.00 65 1009.6
20260505203525 51 201 0.0 2.0 0.00 0.00 0.00 64 1009.6
20260505203023 50 202 1.0 2.0 0.00 0.00 0.00 65 1009.7
20260505202521 50 238 0.0 2.0 0.00 0.00 0.00 67 1009.6
20260505202020 51 0.0 0.0 0.00 0.00 0.00 67 1009.6
20260505201518 51 0.0 0.0 0.00 0.00 0.00 66 1009.7
20260505201018 51 210 0.0 2.0 0.00 0.00 0.00 65 1009.7
20260505200635 51 0.0 0.0 0.00 0.00 0.00 65 1009.5
20260505200053 51 0.0 0.0 0.00 0.00 0.00 66 1009.6
20260505195532 51 220 0.0 1.0 0.00 0.00 0.00 67 1009.6
20260505195030 51 0.0 0.0 0.00 0.00 0.00 67 1009.6
20260505194528 51 163 1.0 6.0 0.00 0.00 0.00 67 1009.5
20260505194026 52 16 0.0 3.0 0.00 0.00 0.00 66 1009.5
20260505193545 51 237 0.0 2.0 0.00 0.00 0.00 66 1009.4
20260505193023 51 41 0.0 1.0 0.00 0.00 0.00 67 1009.3
20260505192542 51 59 0.0 1.0 0.00 0.00 0.00 67 1009.3
20260505192019 52 167 0.0 1.0 0.00 0.00 0.00 66 1009.2
20260505191518 52 0.0 0.0 0.00 0.00 0.00 66 1009.1
20260505191016 52 15 0.0 3.0 0.00 0.00 0.00 66 1009.1
20260505190535 52 0.0 0.0 0.00 0.00 0.00 66 1009.0
20260505190033 52 78 0.0 1.0 0.00 0.00 0.00 65 1008.9
20260505185531 53 0.0 0.0 0.00 0.00 0.00 65 1009.0
20260505185029 53 196 1.0 2.0 0.00 0.00 0.00 61 1009.0
20260505184528 53 54 0.0 1.0 0.00 0.00 0.00 60 1008.8
20260505184026 53 0.0 0.0 0.00 0.00 0.00 64 1008.8
20260505183524 53 182 0.0 1.0 0.00 0.00 0.00 63 1008.8
20260505183042 54 181 0.0 2.0 0.00 0.00 0.00 61 1008.7
20260505182520 55 339 0.0 3.0 0.00 0.00 0.00 58 1008.7
20260505182019 55 187 0.0 1.0 0.00 0.00 0.00 57 1008.6
20260505181519 56 21 2.0 8.0 0.00 0.00 0.00 54 1008.5
20260505181015 56 6 2.0 6.0 0.00 0.00 0.00 54 1008.7
20260505180534 56 357 2.0 8.0 0.00 0.00 0.00 53 1008.6
20260505180032 56 360 4.0 10.0 0.00 0.00 0.00 53 1008.6
20260505175533 56 19 3.0 9.0 0.00 0.00 0.00 53 1008.7
20260505175030 56 2 2.0 7.0 0.00 0.00 0.00 52 1008.5
20260505174527 56 13 4.0 9.0 0.00 0.00 0.00 52 1008.6
20260505174025 57 6 4.0 11.0 0.00 0.00 0.00 52 1008.6
20260505173524 57 12 4.0 9.0 0.00 0.00 0.00 52 1008.5
20260505173022 57 18 4.0 17.0 0.00 0.00 0.00 52 1008.4
20260505172600 57 3 4.0 11.0 0.00 0.00 0.00 52 1008.4
20260505172021 57 347 4.0 9.0 0.00 0.00 0.00 52 1008.5
20260505171517 57 16 5.0 10.0 0.00 0.00 0.00 52 1008.4
20260505171035 57 9 5.0 10.0 0.00 0.00 0.00 51 1008.4
20260505170614 58 349 4.0 15.0 0.00 0.00 0.00 50 1008.5
20260505170032 57 1 4.0 9.0 0.00 0.00 0.00 50 1008.5
20260505165530 58 4 5.0 10.0 0.00 0.00 0.00 51 1008.6
20260505165029 58 17 5.0 14.0 0.00 0.00 0.00 51 1008.5
20260505164527 58 7 6.0 15.0 0.00 0.00 0.00 50 1008.6
20260505164024 58 13 4.0 13.0 0.00 0.00 0.00 50 1008.5
20260505163523 58 353 3.0 7.0 0.00 0.00 0.00 50 1008.6
20260505163021 58 17 1.0 4.0 0.00 0.00 0.00 50 1008.6
20260505162520 58 6 6.0 14.0 0.00 0.00 0.00 50 1008.5
20260505162018 58 12 5.0 14.0 0.00 0.00 0.00 49 1008.6
20260505161516 59 8 7.0 15.0 0.00 0.00 0.00 48 1008.4
20260505161055 59 18 1.0 6.0 0.00 0.00 0.00 47 1008.6
20260505160533 58 27 1.0 6.0 0.00 0.00 0.00 48 1008.7
20260505153021 59 331 5.0 10.0 0.00 0.00 0.00 46 1008.6
20260505152539 60 340 2.0 6.0 0.00 0.00 0.00 46 1008.6
20260505152017 60 301 0.0 2.0 0.00 0.00 0.00 46 1008.7
20260505151536 60 306 2.0 7.0 0.00 0.00 0.00 46 1008.6
20260505151033 61 343 2.0 9.0 0.00 0.00 0.00 45 1008.6
20260505150532 61 13 3.0 9.0 0.00 0.00 0.00 45 1008.5
20260505140531 61 1 8.0 18.0 0.00 0.00 0.00 44 1008.9
20260505125025 60 352 2.0 6.0 0.00 0.00 0.00 46 1009.9
20260505124524 60 329 2.0 11.0 0.00 0.00 0.00 47 1009.9
20260505124022 59 30 1.0 7.0 0.00 0.00 0.00 46 1009.9
20260505123520 59 258 1.0 6.0 0.00 0.00 0.00 46 1009.8
20260505123018 59 334 1.0 4.0 0.00 0.00 0.00 46 1009.8
20260505122537 59 12 1.0 7.0 0.00 0.00 0.00 46 1009.9
20260505122035 60 336 1.0 3.0 0.00 0.00 0.00 46 1009.8
20260505121614 59 36 1.0 3.0 0.00 0.00 0.00 45 1009.8
20260505121031 60 353 1.0 7.0 0.00 0.00 0.00 46 1009.7
20260505120530 59 25 3.0 9.0 0.00 0.00 0.00 46 1009.7
20260505120028 59 2 2.0 7.0 0.00 0.00 0.00 45 1009.9
20260505115527 59 329 1.0 2.0 0.00 0.00 0.00 45 1009.9
20260505115025 59 235 0.0 1.0 0.00 0.00 0.00 47 1009.8
20260505114523 59 7 4.0 10.0 0.00 0.00 0.00 46 1010.0
20260505114021 59 351 4.0 8.0 0.00 0.00 0.00 46 1010.0
20260505113540 58 357 3.0 6.0 0.00 0.00 0.00 46 1010.0
20260505113038 58 6 7.0 13.0 0.00 0.00 0.00 46 1010.1
20260505112516 58 355 9.0 15.0 0.00 0.00 0.00 46 1010.0
20260505112035 59 18 6.0 13.0 0.00 0.00 0.00 46 1010.1
20260505111533 58 334 2.0 6.0 0.00 0.00 0.00 46 1010.1
20260505111051 58 315 1.0 4.0 0.00 0.00 0.00 46 1010.3
20260505110530 58 338 4.0 7.0 0.00 0.00 0.00 46 1010.3
20260505102034 57 11 8.0 16.0 0.00 0.00 0.00 48 1010.6
20260505101532 57 5 7.0 19.0 0.00 0.00 0.00 48 1010.7
20260505101031 58 359 6.0 13.0 0.00 0.00 0.00 47 1010.8
20260505100529 58 345 0.0 2.0 0.00 0.00 0.00 47 1010.9
20260505100027 58 13 1.0 8.0 0.00 0.00 0.00 47 1010.9
20260505095525 58 4 1.0 4.0 0.00 0.00 0.00 48 1010.9
20260505095044 59 327 2.0 8.0 0.00 0.00 0.00 46 1010.7
20260505094522 59 331 1.0 4.0 0.00 0.00 0.00 46 1010.6
20260505094020 58 101 1.0 6.0 0.00 0.00 0.00 47 1010.4
20260505093518 59 354 3.0 8.0 0.00 0.00 0.00 46 1010.2
20260505093017 58 16 2.0 8.0 0.00 0.00 0.00 45 1010.2
20260505092615 58 347 3.0 13.0 0.00 0.00 0.00 45 1010.2
20260505092033 59 2 4.0 9.0 0.00 0.00 0.00 45 1010.2
20260505091532 59 353 3.0 11.0 0.00 0.00 0.00 44 1010.3
20260505091030 60 2 5.0 10.0 0.00 0.00 0.00 43 1010.3
20260505090528 60 30 3.0 10.0 0.00 0.00 0.00 42 1010.1
20260505090027 60 12 4.0 11.0 0.00 0.00 0.00 41 1010.2
20260505085524 60 28 4.0 11.0 0.00 0.00 0.00 41 1010.3
20260505085023 59 51 0.0 3.0 0.00 0.00 0.00 43 1010.4
20260505084521 60 358 7.0 22.0 0.00 0.00 0.00 41 1010.4
20260505084039 59 349 5.0 15.0 0.00 0.00 0.00 42 1010.5
20260505083518 59 358 6.0 13.0 0.00 0.00 0.00 42 1010.5
20260505083056 60 358 6.0 14.0 0.00 0.00 0.00 42 1010.6